QPF
0.00 0.00 0.00 0.00 0.00 0.00 0.00 0.00 0.00 0.00 0.00 0.00 0.00 0.00 0.00 0.00 0.00 0.00 0.00 0.00 0.00 0.00 0.00 0.00 0.00 0.00 0.00 0.00 0.00 0.00 0.00 0.00 0.00 0.00 0.00 0.00 0.00 0.00 0.00 0.00 0.00 0.00 0.00 0.00 0.00 0.00 0.00 0.00 0.00 0.00 0.00 0.00 0.00 0.00 0.00 0.00 0.00 0.00 0.00 0.00 0.00 0.00 0.00 0.00 0.00 0.00 0.00 0.00 0.00
0.00 0.00 0.00 0.00 0.00 0.00 0.00 0.00 0.00 0.00 0.00 0.00 0.00 0.00 0.00 0.00 0.00 0.00 0.00 0.00 0.00 0.00 0.00 0.00 0.00 0.00 0.00 0.00 0.00 0.00 0.00 0.00 0.00 0.00 0.00 0.00 0.00 0.00 0.00 0.00 0.00 0.00 0.00 0.00 0.00 0.00 0.00 0.00 0.00 0.00 0.00 0.00 0.00 0.00 0.00 0.00 0.00 0.00 0.00 0.00 0.00 0.00 0.00 0.00 0.00 0.00 0.00 0.00 0.00
0.00 0.00 0.00 0.00 0.00 0.00 0.00 0.00 0.00 0.00 0.00 0.00 0.00 0.00 0.00 0.00 0.00 0.00 0.00 0.00 0.00 0.00 0.00 0.00 0.00 0.00 0.00 0.00 0.00 0.00 0.00 0.00 0.00 0.00 0.00 0.00 0.00 0.00 0.00 0.00 0.00 0.00 0.00 0.00 0.00 0.00 0.00 0.00 0.00 0.00 0.00 0.00 0.00 0.00 0.00 0.00 0.00 0.00 0.00 0.00 0.00 0.00 0.00 0.00 0.00 0.00 0.00 0.00 0.00
0.00 0.00 0.00 0.00 0.00 0.00 0.00 0.00 0.00 0.00 0.00 0.00 0.00 0.00 0.00 0.00 0.00 0.00 0.00 0.00 0.00 0.00 0.00 0.00 0.00 0.00 0.00 0.00 0.00 0.00 0.00 0.00 0.00 0.00 0.00 0.00 0.00 0.00 0.00 0.00 0.00 0.00 0.00 0.00 0.00 0.00 0.00 0.00 0.00 0.00 0.00 0.00 0.00 0.00 0.00 0.00 0.00 0.00 0.00 0.00 0.00 0.00 0.00 0.00 0.00 0.00 0.00 0.00 0.00
0.00 0.00 0.00 0.00 0.00 0.00 0.00 0.00 0.00 0.00 0.00 0.00 0.00 0.00 0.00 0.00 0.00 0.00 0.00 0.00 0.00 0.00 0.00 0.00 0.00 0.00 0.00 0.00 0.00 0.00 0.00 0.00 0.00 0.00 0.00 0.00 0.00 0.00 0.00 0.00 0.00 0.00 0.00 0.00 0.00 0.00 0.00 0.00 0.00 0.00 0.00 0.00 0.00 0.00 0.00 0.00 0.00 0.00 0.00 0.00 0.00 0.00 0.00 0.00 0.00 0.00 0.00 0.00 0.00
0.00 0.00 0.00 0.00 0.00 0.00 0.00 0.00 0.00 0.00 0.00 0.00 0.00 0.00 0.00 0.00 0.00 0.00 0.00 0.00 0.00 0.00 0.00 0.00 0.00 0.00 0.00 0.00 0.00 0.00 0.00 0.00 0.00 0.00 0.00 0.00 0.00 0.00 0.00 0.00 0.00 0.00 0.00 0.00 0.00 0.00 0.00 0.00 0.00 0.00 0.00 0.00 0.00 0.00 0.00 0.00 0.00 0.00 0.00 0.00 0.00 0.00 0.00 0.00 0.00 0.00 0.00 0.00 0.00
0.00 0.00 0.00 0.00 0.00 0.00 0.00 0.00 0.00 0.00 0.00 0.00 0.00 0.00 0.00 0.00 0.00 0.00 0.00 0.00 0.00 0.00 0.00 0.00 0.00 0.00 0.00 0.00 0.00 0.00 0.00 0.00 0.00 0.00 0.00 0.00 0.00 0.00 0.00 0.00 0.00 0.00 0.00 0.00 0.00 0.00 0.00 0.00 0.00 0.00 0.00 0.00 0.00 0.00 0.00 0.00 0.00 0.00 0.00 0.00 0.00 0.00 0.00 0.00 0.00 0.00 0.00 0.00 0.00
0.00 0.00 0.00 0.00 0.00 0.00 0.00 0.00 0.00 0.00 0.00 0.00 0.00 0.00 0.00 0.00 0.00 0.00 0.00 0.00 0.00 0.00 0.00 0.00 0.00 0.00 0.00 0.00 0.00 0.00 0.00 0.00 0.00 0.00 0.00 0.00 0.00 0.00 0.00 0.00 0.00 0.00 0.00 0.00 0.00 0.00 0.00 0.00 0.00 0.00 0.00 0.00 0.00 0.00 0.00 0.00 0.00 0.00 0.00 0.00 0.00 0.00 0.00 0.00 0.00 0.00 0.00 0.00 0.00
0.00 0.00 0.00 0.00 0.00 0.00 0.00 0.00 0.00 0.00 0.00 0.00 0.00 0.00 0.00 0.00 0.00 0.00 0.00 0.00 0.00 0.00 0.00 0.00 0.00 0.00 0.00 0.00 0.00 0.00 0.00 0.00 0.00 0.00 0.00 0.00 0.00 0.00 0.00 0.00 0.00 0.00 0.00 0.00 0.00 0.00 0.00 0.00 0.00 0.00 0.00 0.00 0.00 0.00 0.00 0.00 0.00 0.00 0.00 0.00 0.00 0.00 0.00 0.00 0.00 0.00 0.00 0.00 0.00
0.00 0.00 0.00 0.00 0.00 0.00 0.00 0.00 0.00 0.00 0.00 0.00 0.00 0.00 0.00 0.00 0.00 0.00 0.00 0.00 0.00 0.00 0.00 0.00 0.00 0.00 0.00 0.00 0.00 0.00 0.00 0.00 0.00 0.00 0.00 0.00 0.00 0.00 0.00 0.00 0.00 0.00 0.00 0.00 0.00 0.00 0.00 0.00 0.00 0.00 0.00 0.00 0.00 0.00 0.00 0.00 0.00 0.00 0.00 0.00 0.00 0.00 0.00 0.00 0.00 0.00 0.00 0.00 0.00
0.00 0.00 0.00 0.00 0.00 0.00 0.00 0.00 0.00 0.00 0.00 0.00 0.00 0.00 0.00 0.00 0.00 0.00 0.00 0.00 0.00 0.00 0.00 0.00 0.00 0.00 0.00 0.00 0.00 0.00 0.00 0.00 0.00 0.00 0.00 0.00 0.00 0.00 0.00 0.00 0.00 0.00 0.00 0.00 0.00 0.00 0.00 0.00 0.00 0.00 0.00 0.00 0.00 0.00 0.00 0.00 0.00 0.00 0.00 0.00 0.00 0.00 0.00 0.00 0.00 0.00 0.00 0.00 0.00
0.00 0.00 0.00 0.00 0.00 0.00 0.00 0.00 0.00 0.00 0.00 0.00 0.00 0.00 0.00 0.00 0.00 0.00 0.00 0.00 0.00 0.00 0.00 0.00 0.00 0.00 0.00 0.00 0.00 0.00 0.00 0.00 0.00 0.00 0.00 0.00 0.00 0.00 0.00 0.00 0.00 0.00 0.00 0.00 0.00 0.00 0.00 0.00 0.00 0.00 0.00 0.00 0.00 0.00 0.00 0.00 0.00 0.00 0.00 0.00 0.00 0.00 0.00 0.00 0.00 0.00 0.00 0.00 0.00
0.00 0.00 0.00 0.00 0.00 0.00 0.00 0.00 0.00 0.00 0.00 0.00 0.00 0.00 0.00 0.00 0.00 0.00 0.00 0.00 0.00 0.00 0.00 0.00 0.00 0.00 0.00 0.00 0.00 0.00 0.00 0.00 0.00 0.00 0.00 0.00 0.00 0.00 0.00 0.00 0.00 0.00 0.00 0.00 0.00 0.00 0.00 0.00 0.00 0.00 0.00 0.00 0.00 0.00 0.00 0.00 0.00 0.00 0.00 0.00 0.00 0.00 0.00 0.00 0.00 0.00 0.00 0.00 0.00
0.00 0.00 0.00 0.00 0.00 0.00 0.00 0.00 0.00 0.00 0.00 0.00 0.00 0.00 0.00 0.00 0.00 0.00 0.00 0.00 0.00 0.00 0.00 0.00 0.00 0.00 0.00 0.00 0.00 0.00 0.00 0.00 0.00 0.00 0.00 0.00 0.00 0.00 0.00 0.00 0.00 0.00 0.00 0.00 0.00 0.00 0.00 0.00 0.00 0.00 0.00 0.00 0.00 0.00 0.00 0.00 0.00 0.00 0.00 0.00 0.00 0.00 0.00 0.00 0.00 0.00 0.00 0.00 0.00
0.00 0.00 0.00 0.00 0.00 0.00 0.00 0.00 0.00 0.00 0.00 0.00 0.00 0.00 0.00 0.00 0.00 0.00 0.00 0.00 0.00 0.00 0.00 0.00 0.00 0.00 0.00 0.00 0.00 0.00 0.00 0.00 0.00 0.00 0.00 0.00 0.00 0.00 0.00 0.00 0.00 0.00 0.00 0.00 0.00 0.00 0.00 0.00 0.00 0.00 0.00 0.00 0.00 0.00 0.00 0.00 0.00 0.00 0.00 0.00 0.00 0.00 0.00 0.00 0.00 0.00 0.01 0.01 0.01
0.00 0.00 0.00 0.00 0.00 0.00 0.00 0.00 0.00 0.00 0.00 0.00 0.00 0.00 0.00 0.00 0.00 0.00 0.00 0.00 0.00 0.00 0.00 0.00 0.00 0.00 0.00 0.00 0.00 0.00 0.00 0.00 0.00 0.00 0.00 0.00 0.00 0.00 0.00 0.00 0.00 0.00 0.00 0.00 0.00 0.00 0.00 0.00 0.00 0.00 0.00 0.00 0.00 0.00 0.00 0.00 0.00 0.00 0.00 0.00 0.00 0.00 0.00 0.00 0.00 0.00 0.01 0.01 0.01
0.00 0.00 0.00 0.00 0.00 0.00 0.00 0.00 0.00 0.00 0.00 0.00 0.00 0.00 0.00 0.00 0.00 0.00 0.00 0.00 0.00 0.00 0.00 0.00 0.00 0.00 0.00 0.00 0.00 0.00 0.00 0.00 0.00 0.00 0.00 0.00 0.00 0.00 0.00 0.00 0.00 0.00 0.00 0.00 0.00 0.00 0.00 0.00 0.00 0.00 0.00 0.00 0.00 0.00 0.00 0.00 0.00 0.00 0.00 0.00 0.00 0.00 0.00 0.00 0.01 0.01 0.01 0.01 0.01
0.00 0.00 0.00 0.00 0.00 0.00 0.00 0.00 0.00 0.00 0.00 0.00 0.00 0.00 0.00 0.00 0.00 0.00 0.00 0.00 0.00 0.00 0.00 0.00 0.00 0.00 0.00 0.00 0.00 0.00 0.00 0.00 0.00 0.00 0.00 0.00 0.00 0.00 0.00 0.00 0.00 0.00 0.00 0.00 0.00 0.00 0.00 0.00 0.00 0.00 0.00 0.00 0.00 0.00 0.00 0.00 0.00 0.00 0.00 0.00 0.00 0.01 0.01 0.01 0.01 0.02 0.02 0.02 0.02
0.00 0.00 0.00 0.00 0.00 0.00 0.00 0.00 0.00 0.00 0.00 0.00 0.00 0.00 0.00 0.00 0.00 0.00 0.00 0.00 0.00 0.00 0.00 0.00 0.00 0.00 0.00 0.00 0.00 0.00 0.00 0.00 0.00 0.00 0.00 0.00 0.00 0.00 0.00 0.00 0.00 0.00 0.00 0.00 0.00 0.00 0.00 0.00 0.00 0.00 0.00 0.00 0.00 0.00 0.00 0.00 0.00 0.00 0.00 0.00 0.01 0.01 0.01 0.01 0.02 0.02 0.02 0.02 0.02
0.00 0.00 0.00 0.00 0.00 0.00 0.00 0.00 0.00 0.00 0.00 0.00 0.00 0.00 0.00 0.00 0.00 0.00 0.00 0.00 0.00 0.00 0.00 0.00 0.00 0.00 0.00 0.00 0.00 0.00 0.00 0.00 0.00 0.00 0.00 0.00 0.00 0.00 0.00 0.00 0.00 0.00 0.00 0.00 0.00 0.00 0.00 0.00 0.00 0.00 0.00 0.00 0.00 0.00 0.00 0.00 0.00 0.00 0.01 0.01 0.01 0.01 0.01 0.02 0.02 0.02 0.02 0.02 0.02
0.00 0.00 0.00 0.00 0.00 0.00 0.00 0.00 0.00 0.00 0.00 0.00 0.00 0.00 0.00 0.00 0.00 0.00 0.00 0.00 0.00 0.00 0.00 0.00 0.00 0.00 0.00 0.00 0.00 0.00 0.00 0.00 0.00 0.00 0.00 0.00 0.00 0.00 0.00 0.00 0.00 0.00 0.00 0.00 0.00 0.00 0.00 0.00 0.00 0.00 0.00 0.00 0.00 0.00 0.00 0.00 0.00 0.01 0.01 0.01 0.01 0.02 0.02 0.02 0.02 0.02 0.02 0.02 0.02
0.00 0.00 0.00 0.00 0.00 0.00 0.00 0.00 0.00 0.00 0.00 0.00 0.00 0.00 0.00 0.00 0.00 0.00 0.00 0.00 0.00 0.00 0.00 0.00 0.00 0.00 0.00 0.00 0.00 0.00 0.00 0.00 0.00 0.00 0.00 0.00 0.00 0.00 0.00 0.00 0.00 0.00 0.00 0.00 0.00 0.00 0.00 0.00 0.00 0.00 0.00 0.00 0.00 0.00 0.00 0.00 0.00 0.01 0.01 0.02 0.02 0.02 0.02 0.02 0.02 0.02 0.02 0.01 0.01
0.00 0.00 0.00 0.00 0.00 0.00 0.00 0.00 0.00 0.00 0.00 0.00 0.00 0.00 0.00 0.00 0.00 0.00 0.00 0.00 0.00 0.00 0.00 0.00 0.00 0.00 0.00 0.00 0.00 0.00 0.00 0.00 0.00 0.00 0.00 0.00 0.00 0.00 0.00 0.00 0.00 0.00 0.00 0.00 0.00 0.00 0.00 0.00 0.00 0.00 0.00 0.00 0.00 0.00 0.01 0.01 0.01 0.01 0.01 0.02 0.02 0.02 0.02 0.02 0.02 0.01 0.01 0.01 0.01
0.00 0.00 0.00 0.00 0.00 0.00 0.00 0.00 0.00 0.00 0.00 0.00 0.00 0.00 0.00 0.00 0.00 0.00 0.00 0.00 0.00 0.00 0.00 0.00 0.00 0.00 0.00 0.00 0.00 0.00 0.00 0.00 0.00 0.00 0.00 0.00 0.00 0.00 0.00 0.00 0.00 0.00 0.00 0.00 0.00 0.00 0.00 0.00 0.00 0.00 0.00 0.00 0.00 0.00 0.00 0.00 0.00 0.01 0.01 0.01 0.02 0.02 0.02 0.02 0.02 0.02 0.02 0.02 0.02
0.00 0.00 0.00 0.00 0.00 0.00 0.00 0.00 0.00 0.00 0.00 0.00 0.00 0.00 0.00 0.00 0.00 0.00 0.00 0.00 0.00 0.00 0.00 0.00 0.00 0.00 0.00 0.00 0.00 0.00 0.00 0.00 0.00 0.00 0.00 0.00 0.00 0.00 0.00 0.00 0.00 0.00 0.00 0.00 0.00 0.00 0.00 0.00 0.00 0.00 0.00 0.00 0.00 0.00 0.00 0.00 0.00 0.00 0.00 0.01 0.01 0.02 0.03 0.03 0.03 0.03 0.02 0.02 0.02
0.00 0.00 0.00 0.00 0.00 0.00 0.00 0.00 0.00 0.00 0.00 0.00 0.00 0.00 0.00 0.00 0.00 0.00 0.00 0.00 0.00 0.00 0.00 0.00 0.00 0.00 0.00 0.00 0.00 0.00 0.00 0.00 0.00 0.00 0.00 0.00 0.00 0.00 0.00 0.00 0.00 0.00 0.00 0.00 0.00 0.00 0.00 0.00 0.00 0.00 0.00 0.01 0.01 0.02 0.02 0.02 0.02 0.02 0.02 0.01 0.03 0.04 0.04 0.03 0.03 0.02 0.02 0.02 0.02
0.00 0.00 0.00 0.00 0.00 0.00 0.00 0.00 0.00 0.00 0.00 0.00 0.00 0.00 0.00 0.00 0.00 0.00 0.00 0.00 0.00 0.00 0.00 0.00 0.00 0.00 0.00 0.00 0.00 0.00 0.00 0.00 0.00 0.00 0.00 0.00 0.00 0.00 0.00 0.00 0.00 0.00 0.00 0.00 0.00 0.00 0.00 0.00 0.00 0.00 0.00 0.00 0.01 0.01 0.02 0.02 0.02 0.02 0.03 0.03 0.04 0.04 0.05 0.06 0.05 0.04 0.04 0.04 0.04
0.00 0.00 0.00 0.00 0.00 0.00 0.00 0.00 0.00 0.00 0.00 0.00 0.00 0.00 0.00 0.00 0.00 0.00 0.00 0.00 0.00 0.00 0.00 0.00 0.00 0.00 0.00 0.00 0.00 0.00 0.00 0.00 0.00 0.00 0.00 0.00 0.00 0.00 0.00 0.00 0.00 0.00 0.00 0.00 0.00 0.00 0.00 0.00 0.00 0.00 0.00 0.00 0.00 0.00 0.00 0.01 0.01 0.01 0.02 0.03 0.03 0.03 0.04 0.05 0.05 0.05 0.05 0.06 0.06
0.00 0.00 0.00 0.00 0.00 0.00 0.00 0.00 0.00 0.00 0.00 0.00 0.00 0.00 0.00 0.00 0.00 0.00 0.00 0.00 0.00 0.00 0.00 0.00 0.00 0.00 0.00 0.00 0.00 0.00 0.00 0.00 0.00 0.00 0.00 0.00 0.00 0.00 0.00 0.00 0.00 0.00 0.00 0.00 0.00 0.00 0.00 0.00 0.00 0.00 0.00 0.00 0.00 0.00 0.00 0.01 0.01 0.01 0.01 0.02 0.01 0.02 0.02 0.03 0.03 0.03 0.04 0.04 0.06
0.00 0.00 0.00 0.00 0.00 0.00 0.00 0.00 0.00 0.00 0.00 0.00 0.00 0.00 0.00 0.00 0.00 0.00 0.00 0.00 0.00 0.00 0.00 0.00 0.00 0.00 0.00 0.00 0.00 0.00 0.00 0.00 0.00 0.00 0.00 0.00 0.00 0.00 0.00 0.00 0.00 0.00 0.00 0.00 0.00 0.00 0.00 0.00 0.00 0.00 0.00 0.00 0.00 0.01 0.01 0.01 0.01 0.01 0.02 0.02 0.02 0.02 0.02 0.02 0.03 0.03 0.03 0.03 0.04
0.00 0.00 0.00 0.00 0.00 0.00 0.00 0.00 0.00 0.00 0.00 0.00 0.00 0.00 0.00 0.00 0.00 0.00 0.00 0.00 0.00 0.00 0.00 0.00 0.00 0.00 0.00 0.00 0.00 0.00 0.00 0.00 0.00 0.00 0.00 0.00 0.00 0.00 0.00 0.00 0.00 0.00 0.00 0.00 0.00 0.00 0.00 0.00 0.00 0.00 0.00 0.00 0.01 0.02 0.02 0.03 0.03 0.03 0.03 0.03 0.04 0.04 0.04 0.05 0.05 0.06 0.06 0.06 0.06
0.00 0.00 0.00 0.00 0.00 0.00 0.00 0.00 0.00 0.00 0.00 0.00 0.00 0.00 0.00 0.00 0.00 0.00 0.00 0.00 0.00 0.00 0.00 0.00 0.00 0.00 0.00 0.00 0.00 0.00 0.00 0.00 0.00 0.00 0.00 0.00 0.00 0.00 0.00 0.00 0.00 0.00 0.00 0.00 0.00 0.00 0.00 0.00 0.01 0.01 0.01 0.02 0.02 0.03 0.03 0.04 0.04 0.04 0.05 0.05 0.04 0.05 0.05 0.06 0.07 0.07 0.08 0.10 0.16
0.00 0.00 0.00 0.00 0.00 0.00 0.00 0.00 0.00 0.00 0.00 0.00 0.00 0.00 0.00 0.00 0.00 0.00 0.00 0.00 0.00 0.00 0.00 0.00 0.00 0.00 0.00 0.00 0.00 0.00 0.00 0.00 0.00 0.00 0.00 0.00 0.00 0.00 0.00 0.00 0.00 0.00 0.00 0.00 0.00 0.00 0.00 0.01 0.01 0.02 0.03 0.03 0.04 0.05 0.06 0.06 0.06 0.08 0.10 0.10 0.09 0.09 0.09 0.09 0.10 0.11 0.13 0.17 0.17
0.01 0.01 0.01 0.01 0.00 0.00 0.00 0.00 0.00 0.00 0.00 0.00 0.00 0.00 0.00 0.00 0.00 0.00 0.00 0.00 0.00 0.00 0.00 0.00 0.00 0.00 0.00 0.00 0.00 0.00 0.00 0.00 0.00 0.00 0.00 0.00 0.00 0.00 0.00 0.00 0.00 0.00 0.00 0.00 0.00 0.00 0.00 0.01 0.02 0.04 0.06 0.09 0.11 0.12 0.12 0.12 0.11 0.12 0.12 0.11 0.11 0.10 0.10 0.10 0.10 0.12 0.15 0.17 0.17
0.01 0.01 0.01 0.01 0.01 0.01 0.00 0.00 0.00 0.00 0.00 0.00 0.00 0.00 0.00 0.00 0.00 0.00 0.00 0.00 0.00 0.00 0.00 0.00 0.00 0.00 0.00 0.00 0.00 0.00 0.00 0.00 0.00 0.00 0.00 0.00 0.00 0.00 0.00 0.00 0.00 0.00 0.00 0.01 0.01 0.01 0.02 0.02 0.03 0.05 0.08 0.10 0.11 0.12 0.12 0.13 0.12 0.11 0.10 0.09 0.09 0.09 0.08 0.08 0.09 0.10 0.13 0.16 0.18
0.01 0.01 0.01 0.01 0.01 0.01 0.01 0.01 0.00 0.00 0.00 0.00 0.00 0.00 0.00 0.00 0.00 0.00 0.00 0.00 0.00 0.00 0.00 0.00 0.00 0.00 0.00 0.00 0.00 0.00 0.00 0.00 0.00 0.00 0.00 0.00 0.00 0.00 0.00 0.00 0.00 0.01 0.02 0.02 0.03 0.04 0.05 0.06 0.07 0.08 0.09 0.09 0.09 0.08 0.09 0.10 0.08 0.08 0.08 0.08 0.08 0.07 0.07 0.07 0.08 0.09 0.12 0.16 0.17
0.01 0.01 0.01 0.01 0.01 0.01 0.01 0.01 0.00 0.00 0.00 0.00 0.00 0.00 0.00 0.00 0.00 0.00 0.00 0.00 0.00 0.00 0.00 0.00 0.00 0.00 0.00 0.00 0.00 0.00 0.00 0.00 0.00 0.00 0.00 0.00 0.01 0.01 0.01 0.01 0.02 0.03 0.04 0.04 0.04 0.05 0.06 0.07 0.09 0.09 0.10 0.09 0.08 0.07 0.06 0.07 0.07 0.07 0.07 0.07 0.06 0.06 0.06 0.06 0.08 0.10 0.12 0.14 0.15
0.01 0.01 0.01 0.01 0.01 0.01 0.01 0.01 0.01 0.01 0.01 0.01 0.01 0.01 0.00 0.00 0.00 0.00 0.00 0.00 0.00 0.00 0.00 0.00 0.00 0.00 0.00 0.00 0.00 0.00 0.01 0.01 0.01 0.01 0.01 0.01 0.01 0.01 0.02 0.02 0.03 0.03 0.04 0.04 0.04 0.04 0.05 0.06 0.07 0.08 0.08 0.08 0.07 0.06 0.06 0.06 0.07 0.07 0.07 0.07 0.06 0.06 0.06 0.06 0.08 0.11 0.12 0.13 0.14
0.01 0.01 0.01 0.01 0.01 0.01 0.01 0.01 0.01 0.01 0.01 0.01 0.01 0.01 0.01 0.01 0.01 0.01 0.00 0.00 0.00 0.00 0.00 0.00 0.01 0.01 0.01 0.00 0.01 0.01 0.01 0.01 0.01 0.01 0.01 0.01 0.01 0.02 0.02 0.02 0.02 0.02 0.03 0.03 0.03 0.03 0.03 0.04 0.05 0.05 0.06 0.06 0.06 0.05 0.05 0.05 0.06 0.07 0.07 0.07 0.07 0.07 0.06 0.07 0.09 0.11 0.12 0.13 0.15
0.01 0.01 0.01 0.01 0.01 0.01 0.01 0.01 0.01 0.01 0.01 0.01 0.01 0.01 0.01 0.01 0.01 0.00 0.00 0.00 0.00 0.00 0.00 0.01 0.01 0.01 0.01 0.01 0.01 0.01 0.01 0.01 0.02 0.02 0.02 0.02 0.02 0.02 0.02 0.02 0.02 0.02 0.02 0.02 0.02 0.02 0.03 0.03 0.04 0.04 0.05 0.05 0.04 0.04 0.04 0.04 0.05 0.06 0.07 0.07 0.07 0.07 0.08 0.08 0.10 0.11 0.12 0.13 0.15
0.01 0.01 0.01 0.01 0.01 0.01 0.01 0.01 0.01 0.01 0.01 0.01 0.01 0.01 0.01 0.00 0.00 0.00 0.00 0.00 0.00 0.00 0.01 0.01 0.01 0.01 0.01 0.01 0.01 0.01 0.01 0.02 0.02 0.02 0.02 0.02 0.02 0.02 0.02 0.02 0.02 0.02 0.02 0.02 0.02 0.02 0.03 0.04 0.04 0.04 0.04 0.04 0.04 0.03 0.04 0.04 0.05 0.06 0.06 0.06 0.07 0.07 0.07 0.08 0.09 0.09 0.10 0.12 0.14
MSLP
1009.75 1009.91 1010.03 1010.23 1010.39 1010.55 1010.67 1010.71 1010.75 1010.83 1010.83 1010.95 1011.03 1011.11 1011.23 1011.31 1011.39 1011.39 1011.47 1011.55 1011.55 1011.63 1011.67 1011.71 1011.71 1011.71 1011.75 1011.83 1011.95 1012.03 1012.11 1012.23 1012.27 1012.39 1012.43 1012.47 1012.55 1012.59 1012.67 1012.83 1012.87 1012.95 1013.03 1013.11 1013.15 1013.27 1013.35 1013.43 1013.55 1013.63 1013.67 1013.71 1013.71 1013.71 1013.71 1013.71 1013.75 1013.79 1013.83 1013.83 1013.83 1013.83 1013.83 1013.83 1013.83 1013.83 1013.87 1013.95 1013.99
1009.63 1009.75 1009.91 1010.07 1010.23 1010.43 1010.55 1010.59 1010.67 1010.75 1010.83 1010.83 1010.91 1010.99 1011.11 1011.19 1011.27 1011.27 1011.35 1011.35 1011.39 1011.43 1011.47 1011.47 1011.51 1011.55 1011.55 1011.63 1011.71 1011.83 1011.91 1011.99 1012.11 1012.15 1012.23 1012.27 1012.27 1012.39 1012.51 1012.59 1012.67 1012.75 1012.83 1012.87 1012.99 1013.07 1013.11 1013.27 1013.35 1013.39 1013.43 1013.51 1013.51 1013.55 1013.51 1013.51 1013.51 1013.55 1013.55 1013.55 1013.59 1013.63 1013.67 1013.67 1013.59 1013.59 1013.63 1013.71 1013.71
1009.55 1009.63 1009.79 1009.95 1010.11 1010.23 1010.39 1010.47 1010.55 1010.63 1010.67 1010.71 1010.83 1010.91 1010.99 1011.07 1011.11 1011.15 1011.15 1011.15 1011.19 1011.23 1011.27 1011.31 1011.35 1011.39 1011.43 1011.47 1011.55 1011.63 1011.71 1011.79 1011.87 1011.95 1011.99 1012.03 1012.11 1012.19 1012.27 1012.31 1012.43 1012.55 1012.63 1012.71 1012.83 1012.87 1012.95 1012.99 1013.11 1013.19 1013.27 1013.27 1013.31 1013.31 1013.31 1013.27 1013.31 1013.31 1013.31 1013.31 1013.39 1013.39 1013.39 1013.39 1013.39 1013.39 1013.43 1013.47 1013.51
1009.39 1009.55 1009.67 1009.79 1009.91 1010.03 1010.11 1010.23 1010.31 1010.39 1010.51 1010.59 1010.67 1010.79 1010.87 1010.95 1010.99 1011.03 1011.03 1011.03 1011.03 1011.11 1011.11 1011.15 1011.19 1011.19 1011.27 1011.31 1011.39 1011.43 1011.55 1011.63 1011.71 1011.75 1011.83 1011.87 1011.95 1011.99 1012.07 1012.15 1012.27 1012.35 1012.43 1012.51 1012.59 1012.67 1012.71 1012.83 1012.91 1012.99 1012.99 1013.03 1013.07 1013.07 1013.03 1013.07 1013.11 1013.11 1013.11 1013.11 1013.15 1013.23 1013.23 1013.27 1013.27 1013.27 1013.31 1013.31 1013.35
1009.35 1009.43 1009.55 1009.63 1009.71 1009.83 1009.91 1010.03 1010.11 1010.23 1010.35 1010.47 1010.55 1010.67 1010.71 1010.79 1010.83 1010.83 1010.87 1010.91 1010.91 1010.95 1010.99 1010.99 1011.03 1011.07 1011.11 1011.15 1011.27 1011.31 1011.39 1011.47 1011.55 1011.59 1011.63 1011.71 1011.71 1011.79 1011.87 1011.99 1012.07 1012.15 1012.27 1012.35 1012.39 1012.47 1012.55 1012.67 1012.75 1012.83 1012.83 1012.83 1012.83 1012.83 1012.83 1012.83 1012.87 1012.91 1012.95 1012.99 1012.99 1013.03 1013.07 1013.07 1013.11 1013.11 1013.15 1013.19 1013.19
1009.27 1009.31 1009.39 1009.51 1009.59 1009.71 1009.79 1009.87 1009.95 1010.03 1010.15 1010.27 1010.39 1010.47 1010.55 1010.59 1010.67 1010.67 1010.71 1010.71 1010.71 1010.75 1010.83 1010.87 1010.91 1010.95 1010.99 1011.03 1011.11 1011.15 1011.23 1011.31 1011.35 1011.39 1011.43 1011.51 1011.55 1011.59 1011.71 1011.79 1011.83 1011.95 1011.99 1012.11 1012.15 1012.27 1012.35 1012.43 1012.51 1012.55 1012.59 1012.63 1012.63 1012.55 1012.55 1012.67 1012.67 1012.71 1012.71 1012.79 1012.83 1012.87 1012.91 1012.95 1012.95 1012.99 1013.03 1013.03 1013.03
1009.11 1009.19 1009.27 1009.35 1009.43 1009.55 1009.63 1009.71 1009.79 1009.83 1009.99 1010.07 1010.15 1010.27 1010.31 1010.35 1010.43 1010.47 1010.47 1010.51 1010.55 1010.63 1010.67 1010.71 1010.79 1010.83 1010.87 1010.87 1010.99 1010.99 1011.07 1011.11 1011.15 1011.23 1011.27 1011.27 1011.35 1011.39 1011.47 1011.55 1011.63 1011.71 1011.79 1011.83 1011.99 1012.07 1012.15 1012.23 1012.31 1012.35 1012.39 1012.39 1012.39 1012.39 1012.39 1012.43 1012.51 1012.51 1012.51 1012.55 1012.59 1012.67 1012.71 1012.75 1012.79 1012.83 1012.83 1012.83 1012.83
1008.99 1009.07 1009.15 1009.27 1009.35 1009.43 1009.51 1009.59 1009.67 1009.75 1009.83 1009.91 1009.99 1010.03 1010.11 1010.15 1010.23 1010.27 1010.31 1010.39 1010.43 1010.47 1010.47 1010.55 1010.59 1010.67 1010.71 1010.75 1010.83 1010.83 1010.83 1010.91 1010.99 1010.99 1011.03 1011.11 1011.15 1011.19 1011.27 1011.35 1011.39 1011.47 1011.55 1011.67 1011.75 1011.83 1011.91 1011.99 1012.07 1012.07 1012.11 1012.19 1012.19 1012.19 1012.19 1012.27 1012.27 1012.31 1012.31 1012.31 1012.35 1012.43 1012.51 1012.55 1012.59 1012.59 1012.59 1012.59 1012.63
1008.95 1008.99 1009.07 1009.15 1009.27 1009.35 1009.39 1009.47 1009.55 1009.63 1009.71 1009.75 1009.79 1009.83 1009.91 1009.99 1010.03 1010.11 1010.15 1010.23 1010.23 1010.27 1010.27 1010.35 1010.39 1010.47 1010.55 1010.59 1010.63 1010.63 1010.67 1010.75 1010.79 1010.83 1010.87 1010.95 1010.99 1011.03 1011.11 1011.15 1011.19 1011.27 1011.31 1011.39 1011.51 1011.59 1011.71 1011.79 1011.83 1011.83 1011.87 1011.91 1011.95 1011.95 1011.99 1012.03 1012.07 1012.11 1012.11 1012.11 1012.11 1012.15 1012.23 1012.27 1012.35 1012.39 1012.39 1012.43 1012.47
1008.83 1008.87 1008.99 1009.07 1009.15 1009.27 1009.31 1009.39 1009.43 1009.51 1009.55 1009.59 1009.63 1009.71 1009.75 1009.83 1009.91 1009.99 1009.99 1009.99 1010.03 1010.11 1010.11 1010.15 1010.23 1010.27 1010.35 1010.39 1010.43 1010.51 1010.55 1010.55 1010.59 1010.67 1010.71 1010.79 1010.83 1010.91 1010.95 1010.95 1010.99 1011.03 1011.11 1011.15 1011.27 1011.35 1011.43 1011.55 1011.59 1011.63 1011.63 1011.67 1011.71 1011.71 1011.71 1011.79 1011.87 1011.91 1011.91 1011.91 1011.95 1011.99 1011.99 1012.03 1012.11 1012.19 1012.23 1012.27 1012.31
1008.75 1008.79 1008.83 1008.99 1009.03 1009.11 1009.27 1009.31 1009.39 1009.43 1009.47 1009.51 1009.51 1009.55 1009.59 1009.67 1009.71 1009.79 1009.83 1009.83 1009.87 1009.91 1009.95 1009.99 1010.03 1010.11 1010.15 1010.23 1010.27 1010.31 1010.39 1010.39 1010.43 1010.51 1010.55 1010.59 1010.63 1010.67 1010.71 1010.75 1010.83 1010.83 1010.91 1010.95 1011.03 1011.11 1011.23 1011.27 1011.35 1011.35 1011.39 1011.39 1011.43 1011.47 1011.47 1011.55 1011.63 1011.71 1011.71 1011.71 1011.75 1011.79 1011.79 1011.83 1011.91 1011.99 1012.03 1012.07 1012.15
1008.67 1008.71 1008.79 1008.87 1008.99 1009.07 1009.15 1009.27 1009.27 1009.31 1009.35 1009.39 1009.39 1009.39 1009.47 1009.47 1009.51 1009.55 1009.63 1009.71 1009.71 1009.75 1009.75 1009.83 1009.87 1009.99 1010.03 1010.03 1010.11 1010.11 1010.15 1010.19 1010.23 1010.27 1010.31 1010.39 1010.39 1010.47 1010.51 1010.55 1010.59 1010.67 1010.67 1010.75 1010.83 1010.91 1010.99 1011.03 1011.11 1011.11 1011.11 1011.19 1011.23 1011.23 1011.23 1011.27 1011.39 1011.47 1011.51 1011.55 1011.59 1011.63 1011.63 1011.63 1011.71 1011.75 1011.83 1011.95 1012.03
1008.63 1008.67 1008.75 1008.83 1008.87 1008.99 1009.07 1009.11 1009.15 1009.19 1009.19 1009.23 1009.27 1009.27 1009.27 1009.31 1009.31 1009.35 1009.43 1009.55 1009.55 1009.55 1009.55 1009.63 1009.71 1009.83 1009.87 1009.91 1009.95 1009.95 1009.99 1009.99 1009.99 1010.07 1010.11 1010.15 1010.19 1010.27 1010.27 1010.31 1010.39 1010.47 1010.51 1010.55 1010.63 1010.67 1010.75 1010.79 1010.87 1010.91 1010.95 1010.95 1010.99 1010.99 1010.99 1011.03 1011.11 1011.23 1011.31 1011.39 1011.39 1011.47 1011.47 1011.47 1011.51 1011.59 1011.71 1011.83 1011.95
1008.51 1008.55 1008.67 1008.71 1008.83 1008.87 1008.95 1008.99 1009.03 1009.03 1009.03 1009.07 1009.07 1009.11 1009.11 1009.11 1009.11 1009.15 1009.23 1009.27 1009.31 1009.39 1009.39 1009.43 1009.55 1009.63 1009.67 1009.71 1009.71 1009.75 1009.79 1009.79 1009.83 1009.83 1009.91 1009.95 1009.99 1010.03 1010.07 1010.11 1010.15 1010.23 1010.27 1010.31 1010.39 1010.47 1010.55 1010.55 1010.63 1010.67 1010.71 1010.71 1010.75 1010.75 1010.79 1010.83 1010.87 1010.99 1011.11 1011.19 1011.23 1011.27 1011.31 1011.31 1011.35 1011.43 1011.59 1011.71 1011.83
1008.35 1008.39 1008.51 1008.59 1008.67 1008.75 1008.79 1008.83 1008.83 1008.83 1008.83 1008.83 1008.83 1008.87 1008.87 1008.87 1008.91 1008.95 1008.99 1009.07 1009.15 1009.19 1009.23 1009.31 1009.35 1009.39 1009.39 1009.47 1009.55 1009.55 1009.55 1009.55 1009.63 1009.67 1009.71 1009.71 1009.75 1009.83 1009.83 1009.87 1009.91 1009.99 1010.03 1010.11 1010.15 1010.23 1010.27 1010.35 1010.39 1010.47 1010.55 1010.55 1010.55 1010.55 1010.59 1010.59 1010.63 1010.71 1010.83 1010.95 1010.99 1011.07 1011.11 1011.15 1011.19 1011.31 1011.47 1011.59 1011.71
1008.23 1008.27 1008.39 1008.47 1008.55 1008.59 1008.63 1008.67 1008.67 1008.67 1008.67 1008.67 1008.67 1008.67 1008.67 1008.67 1008.67 1008.75 1008.83 1008.91 1008.99 1008.99 1009.07 1009.11 1009.11 1009.15 1009.19 1009.27 1009.31 1009.39 1009.39 1009.39 1009.43 1009.47 1009.51 1009.51 1009.55 1009.55 1009.63 1009.67 1009.71 1009.75 1009.83 1009.91 1009.99 1010.03 1010.11 1010.15 1010.19 1010.27 1010.31 1010.35 1010.39 1010.39 1010.43 1010.43 1010.47 1010.55 1010.63 1010.71 1010.83 1010.87 1010.95 1010.99 1011.11 1011.23 1011.39 1011.47 1011.59
1008.11 1008.19 1008.27 1008.35 1008.39 1008.43 1008.47 1008.51 1008.51 1008.47 1008.47 1008.47 1008.51 1008.55 1008.55 1008.55 1008.55 1008.59 1008.67 1008.75 1008.79 1008.83 1008.87 1008.91 1008.95 1008.99 1009.03 1009.07 1009.11 1009.19 1009.23 1009.27 1009.27 1009.27 1009.27 1009.27 1009.31 1009.35 1009.35 1009.39 1009.51 1009.55 1009.63 1009.71 1009.79 1009.83 1009.87 1009.95 1009.99 1010.03 1010.11 1010.15 1010.19 1010.23 1010.27 1010.31 1010.35 1010.39 1010.47 1010.55 1010.67 1010.75 1010.83 1010.91 1011.03 1011.15 1011.27 1011.39 1011.51
1008.07 1008.11 1008.15 1008.19 1008.27 1008.27 1008.31 1008.35 1008.39 1008.35 1008.35 1008.35 1008.35 1008.39 1008.39 1008.39 1008.43 1008.47 1008.51 1008.55 1008.67 1008.67 1008.71 1008.75 1008.79 1008.83 1008.87 1008.91 1008.91 1008.99 1008.99 1009.03 1009.03 1009.07 1009.07 1009.07 1009.11 1009.11 1009.15 1009.19 1009.27 1009.35 1009.43 1009.51 1009.59 1009.67 1009.71 1009.75 1009.83 1009.87 1009.95 1009.99 1010.03 1010.07 1010.11 1010.11 1010.15 1010.27 1010.35 1010.43 1010.51 1010.59 1010.67 1010.79 1010.87 1010.99 1011.15 1011.27 1011.35
1007.99 1007.99 1008.03 1008.11 1008.11 1008.15 1008.19 1008.23 1008.27 1008.27 1008.27 1008.27 1008.27 1008.27 1008.27 1008.27 1008.31 1008.35 1008.39 1008.43 1008.51 1008.55 1008.59 1008.59 1008.63 1008.67 1008.67 1008.71 1008.75 1008.79 1008.83 1008.83 1008.87 1008.87 1008.87 1008.91 1008.91 1008.95 1008.99 1009.03 1009.07 1009.15 1009.27 1009.35 1009.39 1009.47 1009.55 1009.59 1009.67 1009.71 1009.75 1009.83 1009.87 1009.91 1009.95 1009.99 1010.03 1010.11 1010.19 1010.27 1010.35 1010.39 1010.51 1010.55 1010.67 1010.83 1010.95 1011.07 1011.11
1007.99 1007.95 1007.95 1007.99 1007.99 1008.03 1008.03 1008.07 1008.11 1008.11 1008.11 1008.11 1008.15 1008.15 1008.15 1008.19 1008.23 1008.27 1008.27 1008.31 1008.31 1008.35 1008.39 1008.47 1008.47 1008.51 1008.51 1008.55 1008.59 1008.63 1008.63 1008.67 1008.67 1008.67 1008.71 1008.71 1008.75 1008.79 1008.83 1008.87 1008.95 1008.99 1009.07 1009.15 1009.23 1009.27 1009.35 1009.43 1009.47 1009.55 1009.59 1009.63 1009.71 1009.79 1009.83 1009.83 1009.91 1009.99 1010.03 1010.11 1010.15 1010.23 1010.31 1010.39 1010.47 1010.63 1010.75 1010.83 1010.95
1007.99 1007.95 1007.91 1007.91 1007.91 1007.95 1007.95 1007.95 1007.99 1007.99 1007.99 1007.99 1008.03 1008.03 1008.07 1008.11 1008.11 1008.11 1008.15 1008.15 1008.19 1008.23 1008.27 1008.27 1008.31 1008.35 1008.39 1008.39 1008.43 1008.43 1008.43 1008.47 1008.51 1008.51 1008.55 1008.55 1008.55 1008.63 1008.67 1008.67 1008.75 1008.83 1008.87 1008.99 1009.03 1009.11 1009.15 1009.27 1009.31 1009.39 1009.43 1009.51 1009.55 1009.63 1009.71 1009.71 1009.79 1009.83 1009.91 1009.99 1009.99 1010.03 1010.11 1010.23 1010.31 1010.43 1010.59 1010.71 1010.83
1008.15 1008.15 1008.11 1008.11 1008.07 1008.03 1007.99 1007.99 1007.99 1007.95 1007.95 1007.95 1007.99 1007.99 1007.99 1007.99 1007.99 1007.99 1008.03 1008.03 1008.11 1008.11 1008.15 1008.15 1008.19 1008.19 1008.23 1008.27 1008.27 1008.27 1008.27 1008.31 1008.31 1008.35 1008.35 1008.35 1008.39 1008.39 1008.43 1008.51 1008.55 1008.63 1008.71 1008.79 1008.87 1008.99 1009.03 1009.11 1009.15 1009.27 1009.35 1009.43 1009.51 1009.55 1009.55 1009.59 1009.71 1009.71 1009.75 1009.83 1009.87 1009.95 1010.03 1010.11 1010.27 1010.35 1010.47 1010.59 1010.71
1008.35 1008.35 1008.35 1008.31 1008.27 1008.27 1008.23 1008.15 1008.11 1008.07 1008.03 1007.99 1007.99 1007.99 1007.95 1007.95 1007.91 1007.91 1007.91 1007.95 1007.99 1008.03 1008.03 1008.03 1008.03 1008.03 1008.07 1008.11 1008.11 1008.11 1008.15 1008.19 1008.15 1008.15 1008.19 1008.19 1008.23 1008.23 1008.27 1008.35 1008.39 1008.47 1008.55 1008.67 1008.75 1008.87 1008.99 1009.03 1009.11 1009.23 1009.31 1009.39 1009.43 1009.47 1009.51 1009.55 1009.55 1009.59 1009.67 1009.71 1009.75 1009.87 1009.99 1010.11 1010.19 1010.31 1010.39 1010.51 1010.67
1008.47 1008.43 1008.39 1008.35 1008.35 1008.31 1008.27 1008.27 1008.23 1008.15 1008.11 1008.07 1008.03 1007.99 1007.95 1007.91 1007.91 1007.87 1007.87 1007.91 1007.91 1007.91 1007.91 1007.87 1007.87 1007.91 1007.95 1007.95 1007.99 1007.99 1007.99 1008.03 1007.99 1008.03 1008.03 1008.03 1008.07 1008.11 1008.11 1008.19 1008.27 1008.35 1008.43 1008.51 1008.59 1008.75 1008.83 1008.95 1009.07 1009.15 1009.27 1009.31 1009.35 1009.39 1009.39 1009.39 1009.43 1009.51 1009.55 1009.67 1009.71 1009.83 1009.99 1010.11 1010.23 1010.31 1010.39 1010.51 1010.59
1008.55 1008.51 1008.43 1008.39 1008.35 1008.31 1008.27 1008.23 1008.15 1008.11 1008.11 1008.07 1008.03 1007.99 1007.95 1007.91 1007.87 1007.87 1007.91 1007.87 1007.83 1007.83 1007.83 1007.83 1007.79 1007.79 1007.83 1007.83 1007.83 1007.83 1007.83 1007.87 1007.91 1007.95 1007.95 1007.91 1007.99 1007.99 1008.03 1008.11 1008.15 1008.23 1008.31 1008.39 1008.55 1008.67 1008.79 1008.83 1008.91 1009.03 1009.11 1009.19 1009.27 1009.27 1009.27 1009.31 1009.35 1009.39 1009.51 1009.59 1009.71 1009.83 1009.95 1010.07 1010.19 1010.27 1010.39 1010.47 1010.55
1008.55 1008.47 1008.39 1008.39 1008.35 1008.31 1008.27 1008.23 1008.15 1008.11 1008.03 1008.03 1007.99 1007.99 1007.91 1007.87 1007.83 1007.83 1007.83 1007.83 1007.79 1007.79 1007.79 1007.79 1007.75 1007.75 1007.75 1007.75 1007.75 1007.75 1007.75 1007.75 1007.79 1007.83 1007.83 1007.83 1007.87 1007.91 1007.99 1008.03 1008.07 1008.11 1008.15 1008.27 1008.39 1008.55 1008.67 1008.79 1008.83 1008.95 1008.99 1009.07 1009.11 1009.19 1009.23 1009.27 1009.27 1009.39 1009.47 1009.59 1009.71 1009.79 1009.87 1009.99 1010.11 1010.23 1010.35 1010.43 1010.55
1008.51 1008.47 1008.43 1008.39 1008.35 1008.27 1008.23 1008.23 1008.15 1008.11 1008.07 1008.03 1007.99 1007.95 1007.87 1007.83 1007.83 1007.79 1007.79 1007.75 1007.71 1007.71 1007.71 1007.71 1007.71 1007.71 1007.71 1007.71 1007.71 1007.67 1007.67 1007.67 1007.67 1007.71 1007.75 1007.79 1007.83 1007.83 1007.87 1007.95 1007.99 1007.99 1008.03 1008.19 1008.31 1008.47 1008.59 1008.71 1008.83 1008.95 1008.99 1009.03 1009.07 1009.11 1009.15 1009.23 1009.27 1009.35 1009.47 1009.55 1009.67 1009.75 1009.83 1009.95 1010.03 1010.19 1010.35 1010.43 1010.55
1008.55 1008.51 1008.47 1008.43 1008.35 1008.27 1008.23 1008.23 1008.15 1008.11 1008.03 1008.03 1007.99 1007.95 1007.87 1007.83 1007.79 1007.75 1007.71 1007.71 1007.67 1007.67 1007.71 1007.67 1007.63 1007.63 1007.67 1007.63 1007.59 1007.55 1007.55 1007.55 1007.59 1007.67 1007.71 1007.75 1007.75 1007.83 1007.83 1007.87 1007.87 1007.87 1007.99 1008.15 1008.31 1008.43 1008.55 1008.67 1008.79 1008.91 1008.99 1009.03 1009.07 1009.11 1009.15 1009.23 1009.27 1009.39 1009.47 1009.55 1009.63 1009.71 1009.79 1009.87 1009.99 1010.11 1010.27 1010.43 1010.55
1008.67 1008.59 1008.51 1008.39 1008.31 1008.27 1008.23 1008.19 1008.11 1008.11 1008.03 1007.99 1007.99 1007.95 1007.87 1007.83 1007.79 1007.71 1007.67 1007.63 1007.63 1007.63 1007.59 1007.55 1007.55 1007.55 1007.55 1007.55 1007.55 1007.55 1007.55 1007.55 1007.55 1007.63 1007.67 1007.71 1007.75 1007.79 1007.83 1007.83 1007.83 1007.95 1008.07 1008.27 1008.35 1008.47 1008.59 1008.67 1008.79 1008.91 1008.99 1009.07 1009.07 1009.07 1009.11 1009.19 1009.27 1009.31 1009.39 1009.51 1009.55 1009.67 1009.75 1009.83 1009.91 1010.07 1010.23 1010.39 1010.55
1008.79 1008.67 1008.55 1008.43 1008.35 1008.27 1008.23 1008.19 1008.15 1008.11 1008.07 1007.99 1007.95 1007.91 1007.83 1007.83 1007.71 1007.67 1007.59 1007.59 1007.59 1007.55 1007.55 1007.55 1007.55 1007.55 1007.51 1007.51 1007.51 1007.55 1007.55 1007.59 1007.59 1007.67 1007.71 1007.71 1007.75 1007.79 1007.79 1007.83 1007.91 1007.99 1008.11 1008.31 1008.39 1008.47 1008.59 1008.67 1008.79 1008.83 1008.95 1009.03 1009.03 1009.07 1009.11 1009.11 1009.19 1009.27 1009.31 1009.39 1009.51 1009.55 1009.67 1009.79 1009.83 1009.99 1010.15 1010.35 1010.55
1008.91 1008.83 1008.67 1008.55 1008.43 1008.39 1008.31 1008.27 1008.19 1008.11 1008.07 1007.99 1007.95 1007.87 1007.83 1007.71 1007.71 1007.67 1007.63 1007.63 1007.59 1007.55 1007.59 1007.63 1007.59 1007.55 1007.55 1007.55 1007.55 1007.59 1007.59 1007.67 1007.67 1007.71 1007.71 1007.75 1007.79 1007.83 1007.83 1007.91 1007.95 1008.03 1008.23 1008.39 1008.43 1008.51 1008.55 1008.67 1008.71 1008.79 1008.87 1008.99 1008.99 1009.03 1009.07 1009.11 1009.15 1009.19 1009.27 1009.35 1009.39 1009.55 1009.67 1009.79 1009.91 1010.07 1010.19 1010.39 1010.55
1008.99 1008.91 1008.83 1008.67 1008.59 1008.55 1008.43 1008.39 1008.27 1008.19 1008.11 1007.99 1007.95 1007.87 1007.83 1007.75 1007.71 1007.71 1007.67 1007.67 1007.63 1007.63 1007.63 1007.59 1007.59 1007.55 1007.55 1007.59 1007.59 1007.67 1007.71 1007.71 1007.71 1007.79 1007.83 1007.83 1007.91 1007.95 1007.99 1007.99 1007.99 1008.03 1008.23 1008.43 1008.47 1008.55 1008.55 1008.67 1008.71 1008.75 1008.83 1008.87 1008.99 1008.99 1009.03 1009.11 1009.11 1009.19 1009.27 1009.39 1009.43 1009.55 1009.71 1009.83 1009.99 1010.11 1010.27 1010.43 1010.55
1009.07 1008.99 1008.87 1008.79 1008.71 1008.67 1008.55 1008.47 1008.35 1008.23 1008.11 1008.03 1007.99 1007.95 1007.91 1007.87 1007.83 1007.79 1007.75 1007.71 1007.71 1007.67 1007.59 1007.59 1007.55 1007.55 1007.55 1007.59 1007.63 1007.67 1007.71 1007.75 1007.79 1007.87 1007.95 1007.99 1008.03 1008.07 1008.07 1008.11 1008.03 1008.07 1008.27 1008.47 1008.51 1008.55 1008.59 1008.67 1008.67 1008.71 1008.79 1008.87 1008.95 1008.99 1009.07 1009.11 1009.15 1009.23 1009.31 1009.39 1009.55 1009.63 1009.75 1009.87 1009.99 1010.15 1010.31 1010.47 1010.59
1009.11 1009.03 1008.95 1008.87 1008.83 1008.75 1008.67 1008.55 1008.43 1008.31 1008.19 1008.15 1008.11 1008.11 1008.03 1007.99 1007.95 1007.91 1007.87 1007.83 1007.79 1007.71 1007.71 1007.67 1007.67 1007.67 1007.67 1007.67 1007.71 1007.75 1007.79 1007.83 1007.87 1007.95 1007.99 1008.07 1008.11 1008.11 1008.15 1008.15 1008.11 1008.23 1008.39 1008.51 1008.55 1008.59 1008.63 1008.67 1008.67 1008.75 1008.83 1008.91 1008.95 1008.99 1009.07 1009.15 1009.19 1009.27 1009.39 1009.51 1009.63 1009.75 1009.87 1009.99 1010.11 1010.27 1010.39 1010.55 1010.67
1009.27 1009.15 1009.07 1008.99 1008.95 1008.83 1008.75 1008.67 1008.55 1008.43 1008.35 1008.35 1008.31 1008.27 1008.27 1008.19 1008.15 1008.11 1008.07 1007.99 1007.91 1007.83 1007.83 1007.83 1007.83 1007.79 1007.83 1007.83 1007.83 1007.83 1007.91 1007.95 1007.95 1007.99 1008.07 1008.11 1008.15 1008.19 1008.27 1008.27 1008.27 1008.47 1008.59 1008.59 1008.63 1008.67 1008.67 1008.71 1008.71 1008.79 1008.83 1008.95 1008.99 1008.99 1009.07 1009.15 1009.23 1009.35 1009.51 1009.63 1009.79 1009.91 1010.03 1010.11 1010.27 1010.39 1010.47 1010.59 1010.75
1009.43 1009.31 1009.23 1009.11 1009.03 1008.99 1008.87 1008.83 1008.71 1008.63 1008.55 1008.55 1008.55 1008.51 1008.47 1008.39 1008.39 1008.31 1008.27 1008.11 1007.99 1007.95 1007.99 1007.99 1007.95 1007.95 1007.95 1007.99 1007.99 1008.03 1008.11 1008.11 1008.11 1008.11 1008.19 1008.23 1008.27 1008.35 1008.39 1008.43 1008.51 1008.63 1008.75 1008.75 1008.75 1008.71 1008.71 1008.75 1008.79 1008.83 1008.91 1008.95 1008.99 1008.99 1009.11 1009.19 1009.27 1009.43 1009.59 1009.75 1009.91 1010.03 1010.15 1010.23 1010.39 1010.51 1010.63 1010.71 1010.79
1009.55 1009.47 1009.39 1009.27 1009.19 1009.11 1009.03 1008.95 1008.83 1008.79 1008.75 1008.79 1008.75 1008.71 1008.67 1008.63 1008.59 1008.55 1008.39 1008.27 1008.11 1008.07 1008.11 1008.11 1008.11 1008.11 1008.15 1008.15 1008.27 1008.31 1008.39 1008.39 1008.39 1008.39 1008.39 1008.47 1008.47 1008.51 1008.55 1008.55 1008.67 1008.83 1008.91 1008.91 1008.87 1008.83 1008.83 1008.83 1008.83 1008.87 1008.91 1008.95 1008.99 1009.03 1009.15 1009.27 1009.39 1009.51 1009.67 1009.83 1009.95 1010.11 1010.23 1010.31 1010.43 1010.55 1010.67 1010.83 1010.83
1009.71 1009.63 1009.55 1009.39 1009.31 1009.23 1009.15 1009.11 1009.07 1008.99 1008.99 1008.99 1008.95 1008.91 1008.87 1008.83 1008.75 1008.71 1008.63 1008.47 1008.39 1008.35 1008.35 1008.35 1008.39 1008.39 1008.39 1008.47 1008.55 1008.63 1008.71 1008.75 1008.71 1008.67 1008.67 1008.67 1008.75 1008.75 1008.71 1008.75 1008.83 1008.95 1008.99 1009.03 1009.03 1008.99 1008.95 1008.87 1008.87 1008.87 1008.87 1008.87 1008.95 1009.03 1009.15 1009.31 1009.43 1009.55 1009.67 1009.83 1009.99 1010.15 1010.27 1010.35 1010.47 1010.55 1010.67 1010.79 1010.83
1009.83 1009.79 1009.71 1009.59 1009.51 1009.39 1009.31 1009.27 1009.27 1009.27 1009.23 1009.19 1009.11 1009.11 1009.07 1008.99 1008.95 1008.91 1008.83 1008.71 1008.67 1008.63 1008.63 1008.63 1008.67 1008.67 1008.71 1008.75 1008.83 1008.91 1008.99 1008.99 1008.99 1008.99 1008.95 1008.99 1008.99 1008.99 1008.95 1008.91 1008.99 1008.99 1009.07 1009.15 1009.11 1009.11 1009.03 1008.99 1008.91 1008.91 1008.87 1008.87 1008.91 1009.03 1009.15 1009.31 1009.43 1009.59 1009.75 1009.91 1010.07 1010.23 1010.39 1010.47 1010.55 1010.59 1010.67 1010.79 1010.83
1009.99 1009.95 1009.83 1009.75 1009.67 1009.55 1009.55 1009.51 1009.51 1009.51 1009.47 1009.39 1009.31 1009.27 1009.23 1009.15 1009.11 1009.03 1008.99 1008.91 1008.87 1008.83 1008.83 1008.87 1008.91 1008.95 1008.95 1008.99 1008.99 1009.07 1009.11 1009.11 1009.11 1009.11 1009.11 1009.11 1009.15 1009.11 1009.07 1008.99 1008.99 1009.03 1009.11 1009.19 1009.23 1009.19 1009.11 1009.07 1008.99 1008.99 1008.95 1008.95 1008.99 1009.07 1009.19 1009.35 1009.51 1009.67 1009.83 1009.99 1010.15 1010.31 1010.47 1010.63 1010.67 1010.75 1010.83 1010.91 1010.91
1010.15 1010.11 1010.03 1009.95 1009.87 1009.83 1009.75 1009.71 1009.71 1009.71 1009.71 1009.67 1009.55 1009.51 1009.39 1009.31 1009.27 1009.15 1009.11 1009.07 1009.03 1009.03 1009.07 1009.11 1009.11 1009.11 1009.07 1009.07 1009.11 1009.11 1009.19 1009.23 1009.23 1009.19 1009.19 1009.19 1009.19 1009.15 1009.11 1009.07 1009.07 1009.07 1009.11 1009.23 1009.27 1009.27 1009.27 1009.19 1009.15 1009.11 1009.07 1009.03 1009.11 1009.19 1009.27 1009.43 1009.59 1009.71 1009.87 1010.03 1010.19 1010.39 1010.51 1010.67 1010.79 1010.83 1010.91 1010.95 1010.99
Thickness
5651 5651 5651 5651 5651 5651 5650 5651 5652 5652 5653 5653 5653 5654 5654 5654 5654 5655 5655 5655 5656 5656 5656 5656 5657 5657 5657 5657 5657 5657 5657 5657 5657 5658 5657 5657 5658 5657 5656 5656 5655 5654 5654 5653 5653 5652 5651 5650 5649 5648 5648 5648 5647 5647 5646 5646 5645 5644 5643 5643 5642 5642 5641 5640 5640 5639 5638 5637 5635
5652 5652 5651 5651 5651 5651 5650 5651 5651 5651 5652 5652 5652 5652 5653 5653 5654 5654 5654 5654 5655 5655 5655 5655 5656 5656 5656 5657 5657 5657 5657 5657 5657 5657 5657 5658 5657 5656 5656 5656 5655 5654 5654 5653 5652 5651 5651 5649 5648 5648 5648 5647 5646 5646 5646 5645 5644 5644 5643 5643 5642 5641 5640 5639 5639 5638 5637 5636 5635
5652 5652 5652 5651 5651 5651 5651 5652 5651 5652 5651 5652 5651 5652 5652 5652 5652 5653 5654 5654 5654 5654 5654 5654 5655 5655 5656 5657 5656 5657 5657 5657 5657 5657 5657 5657 5656 5656 5655 5655 5654 5653 5652 5651 5651 5651 5650 5649 5648 5647 5647 5646 5646 5646 5645 5645 5644 5643 5643 5642 5641 5640 5640 5639 5638 5637 5635 5635 5634
5652 5652 5652 5652 5652 5652 5652 5652 5652 5652 5651 5651 5651 5651 5651 5651 5651 5652 5652 5652 5653 5653 5654 5654 5654 5655 5655 5656 5657 5657 5656 5657 5656 5657 5656 5656 5656 5656 5655 5654 5654 5653 5652 5651 5650 5650 5649 5648 5647 5647 5646 5646 5645 5645 5644 5643 5643 5642 5642 5642 5640 5640 5639 5638 5636 5635 5634 5633 5632
5651 5652 5652 5652 5653 5653 5652 5653 5653 5652 5652 5651 5651 5651 5651 5651 5651 5651 5651 5652 5652 5653 5653 5653 5654 5655 5655 5656 5656 5656 5656 5656 5655 5656 5655 5656 5655 5655 5654 5654 5653 5652 5651 5650 5649 5649 5648 5647 5646 5646 5645 5645 5645 5644 5644 5643 5642 5641 5641 5640 5639 5638 5637 5636 5635 5633 5632 5631 5630
5652 5652 5652 5652 5653 5653 5652 5653 5653 5652 5652 5652 5651 5651 5651 5651 5651 5651 5651 5652 5652 5652 5653 5653 5653 5654 5655 5656 5656 5655 5656 5655 5655 5655 5655 5655 5655 5654 5654 5653 5652 5651 5651 5650 5649 5649 5648 5647 5646 5645 5645 5644 5644 5643 5643 5642 5641 5641 5640 5639 5638 5636 5636 5634 5633 5632 5631 5630 5628
5652 5652 5652 5652 5652 5652 5652 5653 5652 5652 5652 5652 5652 5652 5652 5652 5652 5652 5652 5652 5652 5652 5652 5653 5653 5654 5654 5655 5655 5655 5655 5655 5655 5655 5654 5654 5654 5654 5653 5652 5652 5651 5650 5649 5649 5647 5646 5646 5645 5645 5644 5643 5643 5642 5642 5641 5640 5639 5639 5638 5637 5635 5634 5632 5632 5630 5629 5628 5627
5650 5651 5651 5652 5651 5651 5652 5652 5652 5652 5652 5652 5652 5653 5652 5652 5652 5652 5652 5652 5652 5652 5652 5653 5653 5653 5653 5654 5654 5654 5654 5654 5654 5654 5653 5654 5653 5653 5652 5652 5652 5650 5650 5649 5648 5647 5646 5646 5645 5644 5643 5643 5642 5641 5640 5640 5639 5638 5638 5637 5635 5634 5632 5631 5630 5629 5628 5627 5626
5649 5650 5650 5650 5651 5651 5651 5651 5651 5652 5652 5652 5652 5652 5652 5652 5652 5652 5652 5652 5652 5653 5652 5653 5653 5653 5653 5653 5653 5654 5654 5653 5653 5653 5653 5652 5652 5652 5651 5651 5650 5650 5649 5648 5647 5646 5646 5645 5644 5644 5643 5642 5641 5641 5639 5639 5638 5637 5636 5635 5634 5632 5631 5630 5629 5628 5627 5626 5624
5649 5649 5649 5649 5650 5650 5650 5650 5650 5651 5651 5651 5652 5652 5651 5651 5651 5651 5652 5652 5652 5652 5652 5652 5653 5653 5652 5653 5652 5653 5653 5652 5652 5652 5651 5652 5651 5651 5650 5650 5650 5649 5648 5648 5647 5646 5645 5644 5644 5643 5642 5641 5641 5640 5639 5638 5637 5636 5635 5634 5633 5632 5631 5629 5628 5626 5625 5624 5623
5648 5648 5649 5649 5649 5648 5649 5649 5649 5650 5650 5650 5651 5651 5651 5651 5651 5651 5651 5651 5651 5652 5652 5652 5652 5652 5652 5652 5652 5651 5652 5651 5651 5651 5651 5650 5649 5649 5649 5648 5648 5648 5647 5647 5646 5645 5644 5644 5644 5642 5642 5641 5640 5639 5638 5637 5636 5635 5634 5633 5632 5631 5629 5628 5626 5625 5623 5622 5620
5647 5647 5647 5648 5648 5648 5647 5648 5649 5649 5649 5650 5650 5650 5650 5650 5651 5650 5650 5650 5651 5651 5651 5651 5650 5651 5651 5651 5650 5650 5651 5650 5650 5650 5650 5649 5649 5648 5648 5648 5647 5647 5646 5646 5645 5644 5644 5643 5643 5642 5641 5641 5639 5638 5638 5637 5636 5634 5632 5632 5630 5629 5628 5627 5625 5623 5622 5620 5619
5646 5646 5646 5646 5647 5646 5647 5647 5648 5648 5649 5649 5649 5650 5650 5650 5650 5650 5650 5650 5650 5650 5650 5650 5650 5650 5649 5650 5649 5649 5650 5650 5649 5649 5649 5649 5648 5648 5647 5647 5647 5646 5646 5645 5644 5644 5643 5643 5642 5642 5641 5639 5639 5638 5637 5636 5635 5633 5632 5630 5629 5627 5626 5625 5624 5622 5620 5618 5616
5646 5646 5646 5646 5646 5646 5646 5647 5647 5648 5648 5649 5649 5649 5649 5649 5650 5649 5650 5650 5650 5649 5650 5649 5649 5649 5649 5649 5648 5649 5649 5649 5649 5648 5648 5648 5648 5647 5647 5647 5646 5645 5645 5644 5644 5643 5642 5642 5641 5640 5640 5639 5638 5637 5636 5635 5634 5632 5631 5629 5628 5626 5624 5623 5622 5621 5618 5616 5614
5646 5646 5647 5647 5646 5646 5646 5647 5647 5648 5648 5649 5649 5649 5649 5649 5650 5649 5650 5649 5650 5649 5649 5649 5649 5649 5648 5648 5648 5648 5648 5649 5649 5648 5648 5648 5647 5647 5647 5646 5646 5645 5644 5644 5643 5642 5641 5641 5640 5639 5638 5638 5637 5636 5635 5634 5633 5631 5630 5628 5627 5625 5624 5622 5620 5618 5617 5615 5613
5647 5647 5647 5647 5647 5647 5647 5647 5647 5648 5649 5649 5649 5649 5650 5650 5650 5650 5650 5649 5649 5649 5649 5649 5649 5649 5649 5648 5648 5648 5648 5648 5648 5648 5648 5648 5648 5647 5646 5646 5645 5644 5644 5643 5642 5641 5641 5639 5639 5638 5637 5636 5635 5634 5633 5632 5631 5630 5628 5627 5625 5624 5622 5620 5619 5617 5615 5613 5611
5647 5647 5647 5648 5647 5648 5648 5647 5648 5649 5649 5649 5649 5649 5650 5650 5650 5650 5650 5649 5649 5650 5649 5649 5649 5649 5649 5648 5648 5648 5648 5648 5648 5648 5648 5648 5647 5646 5646 5646 5644 5644 5643 5642 5641 5641 5639 5639 5637 5637 5635 5634 5634 5633 5632 5631 5630 5628 5627 5625 5623 5622 5620 5618 5617 5615 5613 5611 5609
5647 5647 5647 5647 5647 5648 5648 5648 5648 5649 5649 5649 5649 5650 5649 5650 5650 5650 5650 5649 5649 5649 5649 5649 5649 5649 5649 5648 5648 5647 5647 5647 5647 5647 5647 5647 5646 5646 5646 5644 5644 5642 5642 5641 5640 5640 5639 5637 5636 5635 5634 5633 5632 5631 5630 5629 5628 5627 5625 5624 5622 5620 5619 5617 5615 5613 5611 5609 5608
5646 5647 5647 5647 5647 5647 5647 5647 5648 5648 5648 5649 5649 5649 5649 5649 5649 5649 5649 5649 5648 5649 5649 5649 5648 5648 5648 5647 5647 5647 5647 5646 5646 5646 5646 5646 5646 5645 5644 5643 5643 5641 5641 5639 5639 5638 5637 5636 5635 5634 5633 5632 5631 5629 5629 5628 5626 5625 5624 5623 5621 5619 5618 5616 5614 5612 5610 5608 5607
5645 5646 5646 5647 5647 5647 5647 5647 5647 5648 5648 5648 5648 5648 5648 5649 5649 5649 5649 5648 5648 5648 5648 5648 5648 5648 5648 5648 5647 5646 5646 5646 5646 5645 5645 5645 5644 5644 5644 5642 5642 5641 5640 5638 5638 5637 5636 5635 5634 5633 5632 5631 5630 5628 5627 5626 5625 5624 5622 5621 5619 5618 5617 5615 5613 5612 5610 5607 5606
5643 5644 5645 5646 5646 5647 5647 5647 5647 5648 5648 5648 5648 5648 5648 5648 5648 5648 5648 5648 5648 5648 5648 5648 5648 5647 5647 5646 5646 5646 5646 5645 5645 5645 5645 5644 5643 5643 5642 5641 5640 5640 5639 5638 5637 5636 5635 5633 5633 5632 5630 5629 5628 5627 5626 5624 5624 5622 5621 5619 5619 5617 5616 5614 5612 5610 5608 5606 5604
5641 5641 5642 5642 5643 5644 5645 5645 5646 5646 5647 5647 5647 5647 5648 5647 5648 5647 5647 5647 5647 5647 5647 5647 5647 5647 5646 5646 5646 5645 5645 5644 5644 5644 5643 5643 5642 5642 5641 5640 5640 5639 5638 5637 5636 5634 5633 5632 5631 5630 5629 5627 5626 5625 5624 5623 5622 5621 5619 5618 5617 5615 5614 5612 5610 5608 5606 5604 5602
5638 5638 5639 5639 5640 5641 5642 5642 5643 5644 5644 5645 5646 5646 5646 5646 5647 5647 5647 5646 5646 5646 5646 5646 5646 5646 5646 5645 5644 5644 5644 5644 5643 5643 5643 5642 5642 5641 5640 5639 5639 5638 5637 5636 5634 5633 5631 5630 5629 5628 5626 5625 5624 5623 5623 5621 5620 5619 5618 5617 5615 5613 5611 5609 5607 5605 5603 5601 5599
5636 5636 5637 5638 5638 5639 5640 5640 5641 5641 5642 5643 5644 5644 5645 5645 5646 5646 5645 5645 5645 5645 5645 5645 5646 5645 5645 5645 5644 5644 5643 5643 5643 5642 5642 5642 5641 5640 5640 5639 5638 5637 5636 5635 5633 5631 5629 5628 5627 5625 5624 5623 5622 5621 5621 5620 5619 5617 5615 5614 5612 5611 5609 5606 5604 5602 5600 5598 5596
5633 5634 5635 5636 5637 5637 5639 5639 5640 5641 5642 5642 5642 5643 5643 5644 5644 5644 5644 5644 5644 5644 5644 5644 5644 5644 5644 5644 5643 5643 5643 5643 5642 5642 5641 5640 5640 5639 5638 5637 5636 5635 5634 5632 5631 5629 5628 5626 5625 5624 5622 5622 5620 5620 5619 5617 5616 5615 5613 5612 5610 5608 5606 5604 5602 5599 5597 5595 5593
5632 5633 5634 5635 5636 5636 5638 5638 5639 5640 5640 5641 5641 5642 5642 5642 5642 5642 5642 5643 5643 5643 5643 5643 5643 5643 5643 5643 5643 5642 5642 5642 5641 5640 5640 5639 5638 5638 5636 5636 5635 5633 5632 5631 5629 5627 5625 5624 5623 5622 5621 5619 5618 5617 5616 5616 5614 5612 5611 5609 5607 5605 5603 5601 5599 5596 5594 5592 5590
5631 5632 5632 5633 5634 5635 5636 5637 5637 5638 5639 5639 5640 5640 5641 5641 5641 5642 5642 5642 5642 5642 5642 5642 5642 5641 5641 5641 5641 5641 5641 5640 5640 5638 5638 5638 5637 5636 5635 5634 5633 5632 5631 5629 5627 5625 5624 5622 5620 5619 5618 5617 5616 5615 5614 5612 5612 5610 5609 5606 5604 5603 5601 5599 5596 5594 5592 5589 5587
5629 5630 5631 5632 5633 5634 5635 5635 5636 5637 5637 5638 5639 5639 5639 5639 5640 5640 5641 5641 5641 5641 5641 5641 5640 5640 5640 5640 5640 5640 5639 5639 5638 5637 5636 5635 5635 5634 5633 5632 5631 5631 5629 5627 5625 5623 5621 5620 5619 5617 5615 5614 5614 5612 5612 5610 5609 5607 5605 5603 5601 5600 5598 5596 5594 5592 5589 5587 5585
5627 5628 5629 5630 5632 5633 5634 5634 5635 5636 5636 5636 5637 5637 5638 5638 5639 5639 5639 5640 5640 5640 5640 5639 5639 5639 5638 5638 5639 5638 5637 5637 5636 5635 5634 5633 5633 5632 5631 5630 5629 5628 5626 5624 5622 5621 5619 5618 5616 5614 5613 5612 5611 5610 5608 5608 5606 5604 5602 5601 5599 5597 5595 5593 5592 5589 5587 5584 5582
5625 5626 5628 5629 5630 5631 5632 5633 5633 5634 5634 5635 5635 5635 5636 5637 5637 5638 5638 5638 5638 5638 5638 5637 5637 5637 5637 5637 5636 5636 5635 5635 5634 5633 5632 5631 5631 5630 5629 5628 5627 5625 5623 5621 5620 5618 5617 5615 5614 5612 5610 5609 5608 5607 5606 5604 5603 5602 5600 5598 5597 5595 5593 5591 5589 5587 5585 5582 5580
5623 5624 5625 5627 5628 5629 5629 5630 5631 5631 5632 5632 5633 5634 5634 5635 5636 5636 5636 5636 5636 5636 5635 5635 5635 5635 5634 5634 5634 5633 5633 5632 5631 5630 5630 5629 5628 5627 5626 5625 5624 5622 5620 5618 5617 5616 5614 5613 5611 5609 5608 5607 5605 5604 5603 5602 5601 5600 5597 5596 5594 5592 5590 5588 5586 5584 5582 5580 5577
5620 5621 5623 5624 5625 5626 5627 5628 5628 5629 5630 5631 5632 5632 5633 5633 5633 5633 5633 5634 5633 5633 5633 5633 5633 5632 5632 5632 5631 5630 5630 5628 5628 5627 5626 5625 5624 5623 5622 5622 5621 5620 5618 5615 5614 5613 5611 5610 5609 5607 5606 5605 5603 5602 5601 5599 5598 5597 5595 5593 5591 5589 5587 5585 5583 5580 5578 5576 5574
5618 5619 5620 5621 5622 5623 5623 5625 5626 5627 5628 5629 5629 5630 5629 5630 5630 5630 5630 5630 5630 5631 5630 5631 5631 5630 5630 5629 5629 5628 5627 5626 5625 5623 5623 5622 5621 5620 5619 5619 5618 5617 5615 5612 5611 5610 5609 5607 5606 5605 5604 5602 5600 5599 5598 5596 5595 5593 5592 5589 5588 5586 5583 5581 5579 5577 5574 5573 5570
5616 5617 5618 5618 5619 5620 5621 5622 5623 5624 5625 5626 5625 5625 5626 5626 5626 5627 5627 5627 5627 5628 5627 5627 5627 5627 5626 5626 5625 5624 5624 5623 5622 5621 5620 5619 5618 5617 5616 5616 5615 5614 5611 5609 5608 5607 5606 5605 5603 5602 5601 5599 5597 5596 5594 5593 5592 5590 5587 5586 5584 5582 5579 5577 5575 5573 5571 5569 5566
5613 5614 5615 5616 5617 5617 5618 5618 5619 5621 5621 5622 5622 5622 5622 5623 5622 5623 5623 5623 5624 5624 5624 5624 5623 5623 5623 5622 5622 5621 5621 5620 5619 5618 5617 5616 5615 5614 5613 5612 5611 5609 5607 5606 5605 5604 5603 5602 5600 5599 5597 5595 5594 5593 5591 5590 5588 5586 5584 5582 5580 5577 5575 5573 5571 5569 5567 5565 5563
5610 5611 5612 5613 5614 5614 5615 5616 5616 5617 5617 5618 5617 5618 5618 5618 5618 5619 5620 5620 5621 5621 5621 5621 5621 5620 5620 5620 5618 5618 5616 5616 5616 5615 5614 5613 5611 5611 5609 5608 5607 5605 5603 5602 5601 5600 5600 5598 5597 5596 5594 5593 5591 5590 5588 5587 5585 5582 5580 5578 5576 5574 5571 5569 5567 5565 5563 5561 5559
5607 5608 5609 5610 5611 5612 5612 5612 5613 5614 5614 5614 5614 5614 5614 5615 5615 5615 5616 5617 5618 5618 5618 5617 5617 5617 5616 5616 5615 5613 5612 5611 5611 5610 5609 5608 5607 5606 5605 5605 5603 5601 5599 5598 5598 5597 5596 5595 5594 5593 5591 5590 5588 5587 5585 5583 5581 5579 5577 5574 5572 5570 5568 5566 5564 5561 5559 5558 5556
5604 5605 5606 5607 5608 5609 5609 5610 5610 5610 5610 5610 5610 5611 5611 5612 5612 5612 5612 5613 5614 5615 5614 5614 5613 5612 5612 5611 5610 5608 5607 5606 5606 5605 5605 5603 5602 5601 5601 5600 5598 5596 5595 5593 5593 5593 5592 5592 5591 5589 5589 5587 5585 5584 5582 5579 5577 5576 5574 5571 5569 5567 5564 5562 5561 5559 5557 5555 5554
5601 5602 5603 5604 5604 5605 5606 5606 5606 5607 5607 5607 5607 5608 5608 5608 5609 5608 5609 5610 5610 5610 5610 5609 5609 5607 5607 5606 5605 5603 5602 5601 5601 5600 5600 5599 5597 5597 5596 5596 5594 5593 5591 5590 5589 5588 5588 5588 5587 5586 5585 5584 5583 5581 5579 5577 5574 5572 5570 5568 5565 5563 5560 5559 5557 5556 5554 5552 5551
5598 5599 5600 5601 5601 5602 5603 5603 5603 5603 5603 5604 5604 5604 5605 5605 5605 5605 5605 5606 5606 5605 5605 5604 5604 5603 5603 5602 5601 5600 5598 5598 5597 5596 5595 5594 5593 5592 5592 5592 5591 5589 5588 5587 5585 5584 5584 5584 5583 5582 5581 5581 5580 5577 5575 5573 5571 5569 5566 5564 5562 5559 5557 5554 5553 5551 5550 5548 5547
5595 5596 5597 5597 5598 5598 5599 5599 5599 5599 5599 5599 5600 5600 5601 5601 5602 5602 5602 5602 5602 5601 5601 5600 5599 5599 5599 5598 5597 5596 5595 5594 5592 5592 5591 5591 5590 5589 5588 5588 5587 5586 5585 5583 5581 5580 5580 5579 5579 5578 5577 5577 5575 5573 5571 5569 5568 5565 5563 5560 5558 5556 5553 5551 5549 5548 5546 5545 5544